Location: El Manguito
(10.2358°N, 67.3634°W)
Time: 13:57:59
(UTC+00:00)

NOSS 3-3 (A) - Pass Details

Date: 10 September 2024
Orbit: 733 x 1477 km, 63.4° (Epoch: 04 October)

Event Time Altitude Azimuth Distance (km) Brightness Sun altitude
Rises 23:10:27 0° 183° (S) 3,195 6.7 -10.1°
Reaches altitude 10° 23:13:06 10° 172° (S) 2,238 5.8 -10.7°
Maximum altitude 23:17:26 30° 112° (ESE) 1,305 4.2 -11.8°
Drops below altitude 10° 23:21:50 10° 51° (NE) 2,275 5.5 -12.9°
Sets 23:24:32 0° 41° (NE) 3,258 6.4 -13.5°
Enters shadow 23:24:36 - 41° (NE) 3,282 6.4 -13.5°
